Location: �chenoz-la-M�line
(47.6009°N, 6.1354°E)
Time: 13:07:24
(UTC+00:00)

Cosmos 540 Rocket - Pass Details

Date: 27 January 2021
Orbit: 739 x 754 km, 74.1° (Epoch: 02 March)

Event Time Altitude Azimuth Distance (km) Brightness Sun altitude
Exits shadow 05:01:41 41° 311° (NW) 1,073 3.9 -21.2°
Drops below altitude 10° 05:06:12 10° 11° (N) 2,275 6.0 -20.5°
Sets 05:08:42 0° 18° (NNE) 3,206 6.9 -20.0°
